User: anonymous   Login
Location: Lawrence
(38.9720°N, 95.2350°W)
Time: 01:12:03
(UTC-05:00)
Language:

ALOS - Orbit

View from above orbital plane
View from above orbital plane
View from above satellite
View from above satellite

Ground track
Ground track

The orbit data is extracted from the following two-line orbital elements,

1 28931U 06002A   17081.92341100 +.00000095 +00000-0 +27490-4 0  9998
2 28931 097.8537 113.5582 0001081 126.6859 233.4444 14.62325718594850
Epoch (UTC): 22 March 2017 22:09:42
Eccentricity: 0.0001081
inclination: 97.8537°
perigee height: 685 km
apogee height: 686 km
right ascension of ascending node: 113.5582°
argument of perigee: 126.6859°
revolutions per day: 14.62325718
mean anomaly at epoch: 233.4444°
orbit number at epoch: 59485

The dashed part of the orbit path shows where the satellite is in the earth's shadow,  

DLR